| time (UTC) | temp F | wind direction | speed MPH | gust MPH | rain 1hr in | rain 24hr in | rain mn in | humidity % | barometer mb |
| 20260903033007 | 43 | 337 | 4.0 | 11.0 | 0.00 | 0.00 | 0.00 | 63 | 1016.3 |
| 20260903031505 | 43 | 293 | 6.0 | 12.0 | 0.00 | 0.00 | 0.00 | 64 | 1016.0 |
| 20260903030005 | 43 | 333 | 5.0 | 9.0 | 0.00 | 0.00 | 0.00 | 63 | 1016.0 |
| 20260903024504 | 44 | 359 | 4.0 | 15.0 | 0.00 | 0.00 | 0.00 | 60 | 1016.0 |
| 20260903023006 | 44 | 359 | 4.0 | 14.0 | 0.00 | 0.00 | 0.00 | 59 | 1015.7 |
| 20260903021504 | 45 | 286 | 5.0 | 11.0 | 0.00 | 0.00 | 0.00 | 60 | 1015.5 |
| 20260903014624 | 45 | 341 | 5.0 | 10.0 | 0.00 | 0.00 | 0.00 | 60 | 1015.3 |
| 20260903013107 | 44 | 302 | 7.0 | 13.0 | 0.00 | 0.00 | 0.00 | 61 | 1015.2 |
| 20260903011556 | 45 | 4 | 6.0 | 16.0 | 0.00 | 0.00 | 0.00 | 58 | 1015.0 |
| 20260903010054 | 45 | 359 | 5.0 | 12.0 | 0.00 | 0.00 | 0.00 | 60 | 1014.7 |
| 20260903004556 | 45 | 318 | 9.0 | 17.0 | 0.00 | 0.00 | 0.00 | 58 | 1014.7 |
| 20260903003105 | 45 | 339 | 6.0 | 16.0 | 0.00 | 0.00 | 0.00 | 59 | 1014.5 |
| 20260903001549 | 44 | 354 | 3.0 | 13.0 | 0.00 | 0.00 | 0.00 | 63 | 1014.4 |
| 20260903000057 | 43 | 359 | 7.0 | 16.0 | 0.00 | 0.00 | 0.00 | 62 | 1014.2 |
| 20260902234545 | 45 | 324 | 7.0 | 13.0 | 0.00 | 0.00 | 0.00 | 62 | 1013.9 |
| 20260902233044 | 44 | 304 | 6.0 | 13.0 | 0.00 | 0.00 | 0.00 | 66 | 1013.7 |
| 20260902231545 | 43 | 295 | 7.0 | 14.0 | 0.00 | 0.00 | 0.00 | 69 | 1013.5 |
| 20260902230043 | 43 | 8 | 6.0 | 15.0 | 0.00 | 0.00 | 0.00 | 70 | 1013.4 |
| 20260902224556 | 44 | 354 | 6.0 | 16.0 | 0.00 | 0.00 | 0.00 | 68 | 1013.1 |
| 20260902223036 | 44 | 10 | 6.0 | 16.0 | 0.00 | 0.00 | 0.00 | 70 | 1013.1 |
| 20260902221533 | 45 | 303 | 8.0 | 18.0 | 0.00 | 0.00 | 0.00 | 69 | 1012.9 |
| 20260902220032 | 44 | 312 | 6.0 | 13.0 | 0.00 | 0.00 | 0.00 | 72 | 1012.6 |
| 20260902214603 | 44 | 336 | 8.0 | 17.0 | 0.00 | 0.00 | 0.00 | 72 | 1012.6 |
| 20260902213029 | 45 | 359 | 6.0 | 14.0 | 0.00 | 0.00 | 0.00 | 70 | 1012.4 |
| 20260902211530 | 44 | 343 | 8.0 | 19.0 | 0.00 | 0.00 | 0.00 | 69 | 1012.3 |
| 20260902210027 | 44 | 342 | 4.0 | 14.0 | 0.00 | 0.00 | 0.00 | 71 | 1012.1 |
| 20260902204526 | 43 | 343 | 5.0 | 18.0 | 0.00 | 0.00 | 0.00 | 72 | 1012.0 |
| 20260902203024 | 43 | 331 | 6.0 | 13.0 | 0.00 | 0.00 | 0.00 | 73 | 1011.7 |
| 20260902201531 | 43 | 354 | 5.0 | 13.0 | 0.00 | 0.00 | 0.00 | 73 | 1011.4 |
| 20260902200021 | 43 | 310 | 4.0 | 13.0 | 0.00 | 0.00 | 0.00 | 74 | 1011.2 |
| 20260902194533 | 43 | 359 | 7.0 | 15.0 | 0.00 | 0.00 | 0.00 | 75 | 1011.0 |
| 20260902193020 | 43 | 354 | 4.0 | 19.0 | 0.00 | 0.00 | 0.00 | 75 | 1010.7 |
| 20260902191517 | 44 | 343 | 6.0 | 12.0 | 0.00 | 0.00 | 0.00 | 73 | 1010.5 |
| 20260902190014 | 45 | 68 | 3.0 | 10.0 | 0.00 | 0.00 | 0.00 | 75 | 1010.1 |
| 20260902184510 | 43 | 23 | 3.0 | 8.0 | 0.00 | 0.00 | 0.00 | 78 | 1009.9 |
| 20260902183006 | 41 | 314 | 1.0 | 6.0 | 0.00 | 0.00 | 0.00 | 86 | 1009.8 |
| 20260902181502 | 39 | 321 | 0.0 | 3.0 | 0.00 | 0.00 | 0.00 | 89 | 1009.6 |
| 20260902180058 | 37 | 321 | 0.0 | 4.0 | 0.00 | 0.00 | 0.00 | 94 | 1009.4 |
| 20260902174556 | 35 | 316 | 0.0 | 0.0 | 0.00 | 0.00 | 0.00 | 94 | 1009.3 |
| 20260902173050 | 34 | 316 | 0.0 | 1.0 | 0.00 | 0.00 | 0.00 | 94 | 1009.2 |
| 20260902171548 | 33 | 315 | 0.0 | 1.0 | 0.00 | 0.00 | 0.00 | 94 | 1009.2 |
| 20260902170045 | 32 | 316 | 0.0 | 3.0 | 0.00 | 0.00 | 0.00 | 95 | 1009.0 |
| 20260902164548 | 31 | 315 | 0.0 | 0.0 | 0.00 | 0.00 | 0.00 | 96 | 1008.9 |
| 20260902163107 | 30 | 315 | 0.0 | 0.0 | 0.00 | 0.00 | 0.00 | 95 | 1008.8 |
| 20260902161542 | 30 | 315 | 0.0 | 0.0 | 0.00 | 0.00 | 0.00 | 95 | 1008.7 |
| 20260902160040 | 29 | 315 | 0.0 | 0.0 | 0.00 | 0.00 | 0.00 | 95 | 1008.7 |
| 20260902154540 | 28 | 314 | 0.0 | 0.0 | 0.00 | 0.00 | 0.00 | 95 | 1008.7 |
| 20260902153041 | 28 | 315 | 0.0 | 0.0 | 0.00 | 0.00 | 0.00 | 96 | 1008.5 |
| 20260902151537 | 27 | 316 | 0.0 | 0.0 | 0.00 | 0.00 | 0.00 | 96 | 1008.4 |
| 20260902150035 | 27 | 315 | 0.0 | 0.0 | 0.00 | 0.00 | 0.00 | 96 | 1008.1 |
| 20260902144534 | 26 | 315 | 0.0 | 0.0 | 0.00 | 0.00 | 0.00 | 96 | 1008.0 |
| 20260902143036 | 26 | 315 | 0.0 | 0.0 | 0.00 | 0.00 | 0.00 | 95 | 1007.8 |
| 20260902141535 | 25 | 315 | 0.0 | 0.0 | 0.00 | 0.00 | 0.00 | 95 | 1007.7 |
| 20260902140029 | 25 | 359 | 0.0 | 0.0 | 0.00 | 0.00 | 0.00 | 94 | 1007.6 |
| 20260902134531 | 25 | 316 | 0.0 | 0.0 | 0.00 | 0.00 | 0.00 | 94 | 1007.5 |
| 20260902133033 | 25 | 316 | 0.0 | 0.0 | 0.00 | 0.00 | 0.00 | 94 | 1007.3 |
| 20260902131524 | 25 | 315 | 0.0 | 0.0 | 0.00 | 0.00 | 0.00 | 94 | 1007.1 |
| 20260902130027 | 25 | 315 | 0.0 | 0.0 | 0.00 | 0.00 | 0.00 | 94 | 1007.0 |
| 20260902124523 | 25 | 316 | 0.0 | 0.0 | 0.00 | 0.00 | 0.00 | 94 | 1006.9 |
| 20260902123021 | 25 | 315 | 0.0 | 0.0 | 0.00 | 0.00 | 0.00 | 93 | 1006.8 |
| 20260902121520 | 25 | 315 | 0.0 | 0.0 | 0.00 | 0.00 | 0.00 | 93 | 1006.7 |
| 20260902120019 | 26 | 315 | 0.0 | 0.0 | 0.00 | 0.00 | 0.00 | 93 | 1006.8 |
| 20260902114519 | 26 | 315 | 0.0 | 0.0 | 0.00 | 0.00 | 0.00 | 92 | 1006.9 |
| 20260902113016 | 26 | 315 | 0.0 | 0.0 | 0.00 | 0.00 | 0.00 | 92 | 1007.0 |
| 20260902111515 | 26 | 359 | 0.0 | 0.0 | 0.00 | 0.00 | 0.00 | 92 | 1007.0 |
| 20260902110017 | 27 | 359 | 0.0 | 0.0 | 0.00 | 0.00 | 0.00 | 92 | 1007.1 |
| 20260902104512 | 27 | 316 | 0.0 | 0.0 | 0.00 | 0.00 | 0.00 | 92 | 1007.0 |
| 20260902103011 | 28 | 359 | 0.0 | 0.0 | 0.00 | 0.00 | 0.00 | 91 | 1006.9 |
| 20260902101505 | 28 | 315 | 0.0 | 0.0 | 0.00 | 0.00 | 0.00 | 91 | 1006.9 |
| 20260902100004 | 29 | 315 | 0.0 | 0.0 | 0.00 | 0.00 | 0.00 | 91 | 1006.8 |
| 20260902094502 | 29 | 316 | 0.0 | 0.0 | 0.00 | 0.00 | 0.00 | 91 | 1006.8 |
| 20260902093100 | 30 | 315 | 0.0 | 2.0 | 0.00 | 0.00 | 0.00 | 91 | 1006.8 |
| 20260902091610 | 30 | 316 | 0.0 | 3.0 | 0.00 | 0.00 | 0.00 | 91 | 1006.8 |
| 20260902090104 | 30 | 359 | 0.0 | 0.0 | 0.00 | 0.00 | 0.00 | 90 | 1006.8 |
| 20260902084604 | 30 | 316 | 0.0 | 3.0 | 0.00 | 0.00 | 0.00 | 90 | 1006.8 |
| 20260902083112 | 31 | 359 | 0.0 | 3.0 | 0.00 | 0.00 | 0.00 | 90 | 1006.9 |
| 20260902081551 | 31 | 315 | 0.0 | 1.0 | 0.00 | 0.00 | 0.00 | 89 | 1006.8 |
| 20260902080048 | 32 | 315 | 0.0 | 0.0 | 0.00 | 0.00 | 0.00 | 89 | 1006.8 |
| 20260902074545 | 33 | 316 | 0.0 | 0.0 | 0.00 | 0.00 | 0.00 | 88 | 1006.8 |
| 20260902073042 | 33 | 315 | 0.0 | 1.0 | 0.00 | 0.00 | 0.00 | 88 | 1006.8 |
| 20260902071540 | 34 | 315 | 0.0 | 0.0 | 0.00 | 0.00 | 0.00 | 87 | 1006.7 |
| 20260902070042 | 35 | 315 | 0.0 | 2.0 | 0.00 | 0.00 | 0.00 | 87 | 1006.7 |
| 20260902064542 | 36 | 316 | 0.0 | 2.0 | 0.00 | 0.00 | 0.00 | 86 | 1006.8 |
| 20260902063036 | 37 | 316 | 0.0 | 1.0 | 0.00 | 0.00 | 0.00 | 85 | 1006.7 |
| 20260902061542 | 37 | 316 | 0.0 | 3.0 | 0.00 | 0.00 | 0.00 | 86 | 1006.6 |
| 20260902060028 | 38 | 315 | 0.0 | 3.0 | 0.00 | 0.00 | 0.00 | 83 | 1006.7 |
| 20260902054530 | 39 | 315 | 0.0 | 3.0 | 0.00 | 0.00 | 0.00 | 82 | 1006.6 |
| 20260902053027 | 41 | 319 | 0.0 | 2.0 | 0.00 | 0.00 | 0.00 | 80 | 1006.6 |
| 20260902051527 | 42 | 319 | 1.0 | 4.0 | 0.00 | 0.00 | 0.00 | 79 | 1006.5 |
| 20260902050026 | 43 | 359 | 0.0 | 3.0 | 0.00 | 0.00 | 0.00 | 78 | 1006.4 |
| 20260902044530 | 44 | 336 | 1.0 | 8.0 | 0.00 | 0.00 | 0.00 | 76 | 1006.3 |
| 20260902043035 | 45 | 347 | 2.0 | 6.0 | 0.00 | 0.00 | 0.00 | 74 | 1006.1 |
| 20260902041525 | 46 | 332 | 2.0 | 7.0 | 0.00 | 0.00 | 0.00 | 72 | 1006.0 |
| 20260902040024 | 47 | 359 | 4.0 | 8.0 | 0.00 | 0.00 | 0.00 | 70 | 1005.9 |
| 20260902034524 | 48 | 359 | 4.0 | 11.0 | 0.00 | 0.00 | 0.00 | 69 | 1005.9 |